"Pseudo-MPEC" for P22np5p

Created 2026 Jun 17 18:35:06 UT using Find_Orb

Click here for an explanation of pseudo-MPECs

 
 Astrometry: 
     P22np5p*0C2026 06 13.58314022 41 23.615+29 04 40.80   ~6DF5 22.26wXNEOCPF52
     P22np5p 0C2026 06 13.58756822 41 23.803+29 04 45.15   ~6DF5 22.32wXNEOCPF52
     P22np5p 0C2026 06 13.59200222 41 24.005+29 04 49.75   ~6DF5 22.43wXNEOCPF52
     P22np5p 0C2026 06 13.59642922 41 24.196+29 04 54.32   ~6DF5 22.12wXNEOCPF52
     P22np5p 3C2026 06 14.48756022 42 04.306+29 20 05.41   ~6ECK 22.11GVNEOCPT14
     P22np5p 3C2026 06 14.48854222 42 04.344+29 20 06.35   ~6ECK 22.12GVNEOCPT14
     P22np5p 3C2026 06 14.48951422 42 04.391+29 20 07.37   ~6ECK 22.02GVNEOCPT14
     P22np5p 3C2026 06 15.52486622 42 49.558+29 37 41.12   ~6FDo 21.47GVNEOCPT14
     P22np5p 3C2026 06 15.52607322 42 49.602+29 37 42.28   ~6FDo 21.28GVNEOCPT14
     P22np5p 3C2026 06 15.52727822 42 49.654+29 37 43.55   ~6FDo 21.53GVNEOCPT14

Station data:
(F52) Pan-STARRS 2, Haleakala  (N20.707382 W156.255910)  US/Hawaii.
   Observers J. Herman, T. Lowe, P. Minguez, A. Schultz, I. Smith. Measurers
   K. Chambers, T. de Boer, J. Fairlamb, H. Gao, M. Huber, C.-C. Lin, E.
   Magnier, Y. Ramanjooloo, R. Wainscoat, R. Weryk. 1.8-m Ritchey-Chrétien +
   CCD.
(T14) Mauna Kea-UH/Tholen NEO Follow-Up (CFHT)  (N19.825252 W155.468876)
   US/Hawaii.  Observer R. Weryk. 3.6-m Canada-France-Hawaii Telescope.

Orbital elements:  P22np5p
   Perihelion 2026 Jan 15.486673 +/- 8.53 TT = 11:40:48.5 (JD 2461055.986673)
Epoch 2026 Jun 15.0 TT = JDT 2461206.5   Ju: 0.9086              AutoNEOCP
M  24.958232573 +/- 4.0             (J2000 ecliptic)
n   0.165820748 +/- 0.0176          Peri.   34.053417 +/- 2.4
a   3.281281337 +/- 0.232           Node   241.668692 +/- 0.9
e   0.34081707 +/- 0.0399           Incl.   31.359614 +/- 0.10
P   5.94381                H 17.34  G  0.15   U 10.0
q 2.162964643 +/- 0.0305    Q 4.399598031 +/- 0.441
From 10 observations 2026 June 13-15 (46.7 hr); mean residual 0".05
Residuals in arcseconds: 
260613 F52  .01+  .14+    260614 T14  .02+  .04+    260615 T14  .04-  .04-    
260613 F52  .06-  .07-    260614 T14  .04-  .03-    260615 T14  .01-  .00     
260613 F52  .04+  .04-    260614 T14  .02+  .01-    
260613 F52  .01+  .03-    260615 T14  .05+  .04+    

Ephemerides (geocentric):
Date (UTC) HH   RA             Dec           delta  r     elong  mag " sig PA
---- --------  ------------   ------------  ------ ------ -----  --- --------
2026 06 17 19  22 44 23.668   +30 15 43.80  2.1618 2.3909  90.1 22.1 .657 117
2026 06 17 20  22 44 25.341   +30 16 25.46  2.1615 2.3910  90.2 22.1 .675 117
2026 06 17 21  22 44 27.012   +30 17 07.10  2.1613 2.3911  90.2 22.1 .693 117
2026 06 17 22  22 44 28.680   +30 17 48.72  2.1610 2.3913  90.2 22.1 .711 117
2026 06 17 23  22 44 30.347   +30 18 30.34  2.1607 2.3914  90.2 22.1 .730 117
2026 06 18 00  22 44 32.011   +30 19 11.95  2.1605 2.3915  90.3 22.1 .749 117
2026 06 18 01  22 44 33.673   +30 19 53.54  2.1602 2.3916  90.3 22.1 .768 117
2026 06 18 02  22 44 35.332   +30 20 35.12  2.1599 2.3917  90.3 22.1 .787 117
2026 06 18 03  22 44 36.990   +30 21 16.69  2.1597 2.3918  90.3 22.1 .807 117
2026 06 18 04  22 44 38.645   +30 21 58.25  2.1594 2.3919  90.3 22.1 .827 117
2026 06 18 05  22 44 40.298   +30 22 39.80  2.1591 2.3920  90.4 22.1 .847 117
2026 06 18 06  22 44 41.949   +30 23 21.34  2.1589 2.3922  90.4 22.1 .867 117
2026 06 18 07  22 44 43.597   +30 24 02.86  2.1586 2.3923  90.4 22.1 .888 117
2026 06 18 08  22 44 45.244   +30 24 44.37  2.1583 2.3924  90.4 22.1 .909 117
2026 06 18 09  22 44 46.888   +30 25 25.87  2.1581 2.3925  90.5 22.1 .930 117
2026 06 18 10  22 44 48.530   +30 26 07.36  2.1578 2.3926  90.5 22.1 .951 117
2026 06 18 11  22 44 50.170   +30 26 48.84  2.1575 2.3927  90.5 22.1 .973 117
2026 06 18 12  22 44 51.807   +30 27 30.30  2.1573 2.3928  90.5 22.1 0.99 117
2026 06 18 13  22 44 53.442   +30 28 11.76  2.1570 2.3929  90.5 22.1 1.02 117
2026 06 18 14  22 44 55.075   +30 28 53.20  2.1567 2.3931  90.6 22.1 1.04 117
2026 06 18 15  22 44 56.706   +30 29 34.63  2.1565 2.3932  90.6 22.1 1.06 117
2026 06 18 16  22 44 58.335   +30 30 16.05  2.1562 2.3933  90.6 22.1 1.08 117
2026 06 18 17  22 44 59.961   +30 30 57.45  2.1559 2.3934  90.6 22.1 1.11 117
2026 06 18 18  22 45 01.585   +30 31 38.85  2.1557 2.3935  90.6 22.1 1.13 117
2026 06 18 19  22 45 03.207   +30 32 20.23  2.1554 2.3936  90.7 22.1 1.15 117
2026 06 18 20  22 45 04.826   +30 33 01.60  2.1551 2.3937  90.7 22.1 1.18 117
2026 06 18 21  22 45 06.444   +30 33 42.96  2.1549 2.3938  90.7 22.1 1.20 117
2026 06 18 22  22 45 08.059   +30 34 24.31  2.1546 2.3940  90.7 22.1 1.23 117
2026 06 18 23  22 45 09.672   +30 35 05.64  2.1543 2.3941  90.8 22.1 1.25 117
2026 06 19 00  22 45 11.283   +30 35 46.97  2.1541 2.3942  90.8 22.1 1.28 117
2026 06 19 01  22 45 12.891   +30 36 28.28  2.1538 2.3943  90.8 22.1 1.30 117
2026 06 19 02  22 45 14.497   +30 37 09.58  2.1536 2.3944  90.8 22.1 1.33 117
2026 06 19 03  22 45 16.101   +30 37 50.87  2.1533 2.3945  90.8 22.1 1.35 117
2026 06 19 04  22 45 17.703   +30 38 32.14  2.1530 2.3946  90.9 22.1 1.38 117
2026 06 19 05  22 45 19.302   +30 39 13.40  2.1528 2.3947  90.9 22.1 1.40 117
2026 06 19 06  22 45 20.900   +30 39 54.66  2.1525 2.3949  90.9 22.1 1.43 117
2026 06 19 07  22 45 22.495   +30 40 35.90  2.1522 2.3950  90.9 22.1 1.46 117
2026 06 19 08  22 45 24.087   +30 41 17.12  2.1520 2.3951  91.0 22.1 1.48 117
2026 06 19 09  22 45 25.678   +30 41 58.34  2.1517 2.3952  91.0 22.1 1.51 117
2026 06 19 10  22 45 27.266   +30 42 39.54  2.1514 2.3953  91.0 22.1 1.54 117
2026 06 19 11  22 45 28.852   +30 43 20.73  2.1512 2.3954  91.0 22.1 1.57 117
2026 06 19 12  22 45 30.436   +30 44 01.91  2.1509 2.3955  91.0 22.1 1.59 117
2026 06 19 13  22 45 32.017   +30 44 43.08  2.1506 2.3956  91.1 22.1 1.62 117
2026 06 19 14  22 45 33.597   +30 45 24.23  2.1504 2.3958  91.1 22.1 1.65 117
2026 06 19 15  22 45 35.174   +30 46 05.38  2.1501 2.3959  91.1 22.1 1.68 117
2026 06 19 16  22 45 36.748   +30 46 46.51  2.1498 2.3960  91.1 22.1 1.71 117
2026 06 19 17  22 45 38.321   +30 47 27.62  2.1496 2.3961  91.2 22.1 1.74 117
2026 06 19 18  22 45 39.891   +30 48 08.73  2.1493 2.3962  91.2 22.1 1.77 117